| time (UTC) | temp C | wind direction | speed KPH | gust KPH | rain 1hr cm | rain 24hr cm | rain mn cm | humidity % | barometer mb |
| 20260505041414 | 12 | 158 | 3.2 | 8.0 | 0.00 | 0.33 | 0.00 | 67 | 1002.9 |
| 20260505040914 | 12 | 163 | 3.2 | 8.0 | 0.00 | 0.33 | 0.00 | 68 | 1002.8 |
| 20260505040414 | 12 | 115 | 1.6 | 8.0 | 0.00 | 0.33 | 0.00 | 68 | 1002.8 |
| 20260505035913 | 12 | 169 | 1.6 | 6.4 | 0.00 | 0.33 | 0.33 | 68 | 1002.8 |
| 20260505035413 | 12 | 169 | 1.6 | 6.4 | 0.00 | 0.33 | 0.33 | 69 | 1002.8 |
| 20260505034913 | 12 | 144 | 1.6 | 6.4 | 0.00 | 0.33 | 0.33 | 69 | 1002.8 |
| 20260505034408 | 12 | 224 | 1.6 | 6.4 | 0.00 | 0.33 | 0.33 | 69 | 1002.9 |
| 20260505033907 | 12 | 145 | 1.6 | 6.4 | 0.00 | 0.33 | 0.33 | 69 | 1002.9 |
| 20260505033406 | 12 | 227 | 1.6 | 6.4 | 0.00 | 0.33 | 0.33 | 70 | 1002.9 |
| 20260505032907 | 12 | 172 | 1.6 | 6.4 | 0.00 | 0.33 | 0.33 | 70 | 1002.8 |
| 20260505032638 | 12 | 203 | 0.0 | 6.4 | 0.00 | 0.33 | 0.33 | 70 | 1002.9 |
| 20260505031908 | 12 | 164 | 1.6 | 6.4 | 0.00 | 0.33 | 0.33 | 71 | 1002.9 |
| 20260505031634 | 12 | 178 | 1.6 | 6.4 | 0.00 | 0.33 | 0.33 | 70 | 1002.9 |
| 20260505031133 | 12 | 287 | 1.6 | 6.4 | 0.00 | 0.33 | 0.33 | 71 | 1002.9 |
| 20260505030404 | 12 | 150 | 1.6 | 3.2 | 0.00 | 0.33 | 0.33 | 71 | 1003.0 |
| 20260505025902 | 12 | 199 | 0.0 | 4.8 | 0.00 | 0.33 | 0.33 | 71 | 1003.0 |
| 20260505025635 | 12 | 199 | 0.0 | 4.8 | 0.00 | 0.33 | 0.33 | 71 | 1002.9 |
| 20260505024901 | 12 | 155 | 0.0 | 4.8 | 0.00 | 0.33 | 0.33 | 71 | 1003.0 |
| 20260505024358 | 12 | 176 | 1.6 | 6.4 | 0.00 | 0.33 | 0.33 | 71 | 1003.2 |
| 20260505023900 | 12 | 154 | 1.6 | 6.4 | 0.00 | 0.33 | 0.33 | 71 | 1003.1 |
| 20260505023358 | 12 | 136 | 1.6 | 6.4 | 0.00 | 0.33 | 0.33 | 71 | 1003.2 |
| 20260505022902 | 13 | 146 | 1.6 | 6.4 | 0.00 | 0.33 | 0.33 | 71 | 1003.2 |
| 20260505022355 | 13 | 158 | 1.6 | 6.4 | 0.00 | 0.33 | 0.33 | 71 | 1003.2 |
| 20260505021853 | 13 | 157 | 0.0 | 6.4 | 0.00 | 0.33 | 0.33 | 71 | 1003.2 |
| 20260505021623 | 13 | 167 | 0.0 | 3.2 | 0.00 | 0.33 | 0.33 | 70 | 1003.3 |
| 20260505020853 | 13 | 162 | 0.0 | 3.2 | 0.00 | 0.33 | 0.33 | 70 | 1003.2 |
| 20260505020353 | 13 | 160 | 0.0 | 3.2 | 0.00 | 0.33 | 0.33 | 70 | 1003.2 |
| 20260505020117 | 13 | 155 | 0.0 | 3.2 | 0.00 | 0.33 | 0.33 | 70 | 1003.2 |
| 20260505015347 | 13 | 172 | 0.0 | 3.2 | 0.00 | 0.33 | 0.33 | 70 | 1003.3 |
| 20260505014846 | 13 | 157 | 0.0 | 3.2 | 0.00 | 0.33 | 0.33 | 70 | 1003.3 |
| 20260505014343 | 13 | 155 | 0.0 | 4.8 | 0.00 | 0.33 | 0.33 | 71 | 1003.3 |
| 20260505013842 | 12 | 170 | 0.0 | 4.8 | 0.00 | 0.33 | 0.33 | 71 | 1003.3 |
| 20260505013342 | 12 | 200 | 0.0 | 3.2 | 0.00 | 0.33 | 0.33 | 72 | 1003.3 |
| 20260505013115 | 12 | 200 | 0.0 | 3.2 | 0.00 | 0.33 | 0.33 | 72 | 1003.3 |
| 20260505012340 | 12 | 191 | 0.0 | 1.6 | 0.00 | 0.33 | 0.33 | 71 | 1003.3 |
| 20260505011841 | 12 | 190 | 0.0 | 0.0 | 0.00 | 0.33 | 0.33 | 71 | 1003.4 |
| 20260505011340 | 13 | 191 | 0.0 | 0.0 | 0.00 | 0.33 | 0.33 | 70 | 1003.4 |
| 20260505010838 | 13 | 191 | 0.0 | 0.0 | 0.00 | 0.33 | 0.33 | 70 | 1003.5 |
| 20260505010609 | 13 | 191 | 0.0 | 0.0 | 0.00 | 0.33 | 0.33 | 69 | 1003.4 |
| 20260505005838 | 13 | 190 | 0.0 | 0.0 | 0.00 | 0.33 | 0.33 | 70 | 1003.4 |
| 20260505005339 | 13 | 190 | 0.0 | 0.0 | 0.00 | 0.33 | 0.33 | 70 | 1003.4 |
| 20260505004839 | 13 | 191 | 0.0 | 3.2 | 0.00 | 0.33 | 0.33 | 70 | 1003.4 |
| 20260505003833 | 13 | 146 | 0.0 | 3.2 | 0.00 | 0.33 | 0.33 | 70 | 1003.2 |
| 20260505003601 | 13 | 207 | 0.0 | 3.2 | 0.00 | 0.33 | 0.33 | 72 | 1003.2 |
| 20260505002831 | 13 | 176 | 0.0 | 1.6 | 0.00 | 0.33 | 0.33 | 73 | 1003.2 |
| 20260505002331 | 13 | 176 | 0.0 | 1.6 | 0.00 | 0.33 | 0.33 | 72 | 1003.2 |
| 20260505001832 | 13 | 176 | 0.0 | 1.6 | 0.00 | 0.33 | 0.33 | 71 | 1003.2 |
| 20260505001329 | 13 | 176 | 0.0 | 1.6 | 0.00 | 0.33 | 0.33 | 70 | 1003.2 |
| 20260505000828 | 14 | 138 | 0.0 | 1.6 | 0.00 | 0.33 | 0.33 | 69 | 1003.1 |
| 20260505000325 | 14 | 139 | 0.0 | 1.6 | 0.00 | 0.33 | 0.33 | 69 | 1003.2 |
| 20260504235826 | 14 | 134 | 0.0 | 1.6 | 0.00 | 0.33 | 0.33 | 69 | 1003.1 |
| 20260504235323 | 14 | 132 | 0.0 | 1.6 | 0.00 | 0.33 | 0.33 | 69 | 1003.1 |
| 20260504234823 | 15 | 132 | 0.0 | 1.6 | 0.00 | 0.33 | 0.33 | 69 | 1003.1 |
| 20260504234323 | 15 | 132 | 0.0 | 1.6 | 0.00 | 0.33 | 0.33 | 68 | 1003.1 |
| 20260504233820 | 15 | 132 | 0.0 | 1.6 | 0.00 | 0.33 | 0.33 | 67 | 1003.1 |
| 20260504233321 | 15 | 133 | 0.0 | 0.0 | 0.00 | 0.33 | 0.33 | 68 | 1003.1 |
| 20260504232820 | 15 | 133 | 0.0 | 0.0 | 0.00 | 0.33 | 0.33 | 67 | 1003.1 |
| 20260504232317 | 15 | 133 | 0.0 | 0.0 | 0.00 | 0.33 | 0.33 | 66 | 1003.1 |
| 20260504231814 | 15 | 133 | 0.0 | 0.0 | 0.00 | 0.33 | 0.33 | 65 | 1003.1 |
| 20260504231314 | 16 | 133 | 0.0 | 0.0 | 0.00 | 0.33 | 0.33 | 65 | 1003.1 |
| 20260504230814 | 16 | 133 | 0.0 | 0.0 | 0.00 | 0.33 | 0.33 | 65 | 1003.1 |
| 20260504230312 | 16 | 133 | 0.0 | 0.0 | 0.00 | 0.33 | 0.33 | 66 | 1003.1 |
| 20260504225812 | 16 | 132 | 0.0 | 1.6 | 0.00 | 0.33 | 0.33 | 65 | 1003.1 |
| 20260504224804 | 16 | 133 | 0.0 | 1.6 | 0.00 | 0.33 | 0.33 | 61 | 1003.0 |
| 20260504224302 | 16 | 133 | 0.0 | 1.6 | 0.00 | 0.33 | 0.33 | 61 | 1003.0 |
| 20260504223802 | 16 | 133 | 0.0 | 3.2 | 0.00 | 0.33 | 0.33 | 61 | 1003.0 |
| 20260504223303 | 16 | 133 | 0.0 | 3.2 | 0.00 | 0.33 | 0.33 | 60 | 1003.0 |
| 20260504222801 | 16 | 163 | 0.0 | 4.8 | 0.00 | 0.33 | 0.33 | 60 | 1003.0 |
| 20260504222530 | 17 | 163 | 0.0 | 4.8 | 0.00 | 0.33 | 0.33 | 60 | 1003.0 |
| 20260504221755 | 17 | 148 | 1.6 | 8.0 | 0.00 | 0.33 | 0.33 | 59 | 1003.0 |
| 20260504221254 | 17 | 153 | 1.6 | 8.0 | 0.00 | 0.33 | 0.33 | 58 | 1003.0 |
| 20260504220755 | 17 | 149 | 1.6 | 6.4 | 0.00 | 0.33 | 0.33 | 58 | 1003.0 |
| 20260504215755 | 17 | 204 | 1.6 | 8.0 | 0.00 | 0.33 | 0.33 | 55 | 1003.0 |
| 20260504215524 | 17 | 169 | 3.2 | 8.0 | 0.00 | 0.33 | 0.33 | 55 | 1003.1 |
| 20260504214753 | 17 | 142 | 3.2 | 8.0 | 0.00 | 0.33 | 0.33 | 54 | 1003.1 |
| 20260504214250 | 17 | 162 | 1.6 | 8.0 | 0.00 | 0.33 | 0.33 | 55 | 1003.1 |
| 20260504213747 | 17 | 157 | 1.6 | 6.4 | 0.00 | 0.33 | 0.33 | 55 | 1003.2 |
| 20260504213515 | 17 | 167 | 1.6 | 6.4 | 0.00 | 0.33 | 0.33 | 54 | 1003.2 |
| 20260504212742 | 18 | 160 | 0.0 | 6.4 | 0.00 | 0.33 | 0.33 | 56 | 1003.2 |
| 20260504212243 | 18 | 159 | 1.6 | 6.4 | 0.00 | 0.33 | 0.33 | 53 | 1003.2 |
| 20260504211742 | 18 | 162 | 1.6 | 6.4 | 0.00 | 0.33 | 0.33 | 55 | 1003.3 |
| 20260504211242 | 18 | 143 | 1.6 | 6.4 | 0.00 | 0.33 | 0.33 | 53 | 1003.2 |
| 20260504210741 | 18 | 151 | 1.6 | 9.7 | 0.00 | 0.33 | 0.33 | 54 | 1003.4 |
| 20260504210239 | 18 | 151 | 1.6 | 9.7 | 0.00 | 0.33 | 0.33 | 55 | 1003.3 |
| 20260504210008 | 18 | 94 | 1.6 | 8.0 | 0.00 | 0.33 | 0.33 | 56 | 1003.2 |
| 20260504205235 | 18 | 158 | 1.6 | 8.0 | 0.00 | 0.33 | 0.33 | 53 | 1003.3 |
| 20260504204732 | 18 | 233 | 1.6 | 8.0 | 0.00 | 0.33 | 0.33 | 53 | 1003.3 |
| 20260504204502 | 18 | 185 | 3.2 | 8.0 | 0.00 | 0.33 | 0.33 | 54 | 1003.3 |
| 20260504203731 | 18 | 136 | 1.6 | 8.0 | 0.00 | 0.33 | 0.33 | 54 | 1003.4 |
| 20260504203230 | 18 | 114 | 3.2 | 9.7 | 0.00 | 0.33 | 0.33 | 53 | 1003.3 |
| 20260504202730 | 18 | 111 | 3.2 | 9.7 | 0.00 | 0.33 | 0.33 | 55 | 1003.3 |
| 20260504202230 | 18 | 139 | 0.0 | 6.4 | 0.00 | 0.33 | 0.33 | 57 | 1003.4 |
| 20260504201729 | 18 | 162 | 1.6 | 9.7 | 0.00 | 0.33 | 0.33 | 57 | 1003.3 |
| 20260504201230 | 18 | 205 | 1.6 | 9.7 | 0.00 | 0.33 | 0.33 | 57 | 1003.4 |
| 20260504200730 | 17 | 177 | 0.0 | 6.4 | 0.00 | 0.33 | 0.33 | 58 | 1003.4 |
| 20260504200502 | 17 | 104 | 1.6 | 8.0 | 0.00 | 0.33 | 0.33 | 57 | 1003.4 |
| 20260504195731 | 17 | 77 | 1.6 | 9.7 | 0.00 | 0.33 | 0.33 | 57 | 1003.5 |
| 20260504195229 | 17 | 209 | 3.2 | 9.7 | 0.00 | 0.33 | 0.33 | 56 | 1003.5 |
| 20260504194724 | 17 | 150 | 3.2 | 9.7 | 0.00 | 0.33 | 0.33 | 60 | 1003.6 |
| 20260504194224 | 17 | 215 | 3.2 | 9.7 | 0.00 | 0.33 | 0.33 | 59 | 1003.6 |
| 20260504193725 | 17 | 195 | 3.2 | 9.7 | 0.00 | 0.33 | 0.33 | 59 | 1003.7 |
| 20260504193224 | 17 | 134 | 1.6 | 8.0 | 0.00 | 0.33 | 0.33 | 57 | 1003.7 |
| 20260504192724 | 17 | 151 | 1.6 | 8.0 | 0.00 | 0.33 | 0.33 | 60 | 1003.9 |
| 20260504192224 | 17 | 136 | 1.6 | 8.0 | 0.00 | 0.33 | 0.33 | 56 | 1004.0 |
| 20260504191724 | 17 | 141 | 1.6 | 6.4 | 0.00 | 0.33 | 0.33 | 62 | 1004.1 |
| 20260504191224 | 17 | 222 | 1.6 | 6.4 | 0.00 | 0.33 | 0.33 | 57 | 1004.2 |
| 20260504190725 | 17 | 113 | 1.6 | 6.4 | 0.00 | 0.33 | 0.33 | 56 | 1004.2 |
| 20260504190224 | 17 | 147 | 0.0 | 6.4 | 0.00 | 0.33 | 0.33 | 58 | 1004.2 |
| 20260504185720 | 17 | 253 | 0.0 | 6.4 | 0.00 | 0.33 | 0.33 | 61 | 1004.3 |
| 20260504185451 | 17 | 97 | 0.0 | 4.8 | 0.00 | 0.33 | 0.33 | 60 | 1004.3 |
| 20260504184220 | 16 | 147 | 1.6 | 6.4 | 0.00 | 0.33 | 0.33 | 59 | 1004.4 |
| 20260504183721 | 16 | 105 | 0.0 | 4.8 | 0.00 | 0.33 | 0.33 | 60 | 1004.5 |
| 20260504183214 | 16 | 196 | 0.0 | 4.8 | 0.00 | 0.33 | 0.33 | 66 | 1004.5 |
| 20260504182708 | 15 | 239 | 0.0 | 3.2 | 0.00 | 0.33 | 0.33 | 64 | 1004.6 |
| 20260504182205 | 15 | 239 | 0.0 | 1.6 | 0.00 | 0.33 | 0.33 | 65 | 1004.6 |
| 20260504181703 | 15 | 239 | 0.0 | 1.6 | 0.00 | 0.33 | 0.33 | 66 | 1004.7 |
| 20260504181203 | 15 | 241 | 0.0 | 3.2 | 0.00 | 0.33 | 0.33 | 66 | 1004.8 |
| 20260504180700 | 15 | 255 | 0.0 | 3.2 | 0.00 | 0.33 | 0.33 | 67 | 1004.9 |
| 20260504180200 | 14 | 254 | 0.0 | 3.2 | 0.00 | 0.33 | 0.33 | 65 | 1004.9 |
| 20260504175658 | 14 | 248 | 1.6 | 4.8 | 0.00 | 0.33 | 0.33 | 67 | 1005.0 |
| 20260504175429 | 14 | 291 | 1.6 | 6.4 | 0.00 | 0.33 | 0.33 | 68 | 1005.0 |
| 20260504174658 | 14 | 236 | 0.0 | 6.4 | 0.00 | 0.33 | 0.33 | 68 | 1005.1 |
| 20260504174428 | 14 | 252 | 0.0 | 3.2 | 0.00 | 0.33 | 0.33 | 71 | 1005.1 |
| 20260504173656 | 14 | 251 | 0.0 | 3.2 | 0.00 | 0.33 | 0.33 | 70 | 1005.1 |
| 20260504173153 | 14 | 165 | 0.0 | 4.8 | 0.00 | 0.33 | 0.33 | 72 | 1005.1 |
| 20260504172654 | 13 | 158 | 0.0 | 4.8 | 0.00 | 0.33 | 0.33 | 73 | 1005.2 |
| 20260504172154 | 13 | 238 | 0.0 | 6.4 | 0.00 | 0.33 | 0.33 | 75 | 1005.2 |
| 20260504171653 | 13 | 229 | 1.6 | 6.4 | 0.00 | 0.33 | 0.33 | 74 | 1005.2 |
| 20260504171147 | 13 | 172 | 1.6 | 6.4 | 0.00 | 0.33 | 0.33 | 75 | 1005.3 |
| 20260504170649 | 12 | 208 | 1.6 | 6.4 | 0.00 | 0.33 | 0.33 | 76 | 1005.3 |
| 20260504170145 | 12 | 221 | 1.6 | 6.4 | 0.00 | 0.33 | 0.33 | 78 | 1005.3 |
| 20260504160139 | 12 | 195 | 1.6 | 11.3 | 0.00 | 0.33 | 0.33 | 82 | 1005.3 |
| 20260504151126 | 10 | 208 | 3.2 | 9.7 | 0.03 | 0.33 | 0.33 | 87 | 1005.5 |
| 20260504150123 | 10 | 255 | 1.6 | 9.7 | 0.03 | 0.33 | 0.33 | 88 | 1005.5 |
| 20260504141116 | 9 | 257 | 1.6 | 8.0 | 0.03 | 0.30 | 0.30 | 90 | 1005.3 |
| 20260504140609 | 9 | 231 | 1.6 | 8.0 | 0.03 | 0.30 | 0.30 | 90 | 1005.3 |
| 20260504140110 | 9 | 247 | 0.0 | 4.8 | 0.03 | 0.30 | 0.30 | 90 | 1005.3 |
| 20260504130339 | 8 | 246 | 1.6 | 8.0 | 0.10 | 0.28 | 0.28 | 92 | 1004.7 |
| 20260504110321 | 7 | 176 | 3.2 | 9.7 | 0.00 | 0.15 | 0.15 | 91 | 1004.3 |
| 20260504100309 | 6 | 120 | 1.6 | 9.7 | 0.15 | 0.15 | 0.15 | 91 | 1004.7 |
| 20260504081253 | 5 | 145 | 0.0 | 3.2 | 0.00 | 0.00 | 0.00 | 84 | 1005.7 |
| 20260504080746 | 5 | 155 | 0.0 | 1.6 | 0.00 | 0.00 | 0.00 | 84 | 1005.8 |
| 20260504080517 | 5 | 155 | 0.0 | 1.6 | 0.00 | 0.00 | 0.00 | 83 | 1005.8 |
| 20260504070229 | 5 | 243 | 0.0 | 3.2 | 0.00 | 0.00 | 0.00 | 78 | 1005.8 |
| 20260504060210 | 5 | 214 | 0.0 | 3.2 | 0.00 | 0.00 | 0.00 | 69 | 1006.0 |
| 20260504050149 | 3 | 175 | 0.0 | 1.6 | 0.00 | 0.00 | 0.00 | 67 | 1006.2 |
| 20260504045646 | 3 | 175 | 0.0 | 1.6 | 0.00 | 0.00 | 0.00 | 67 | 1006.2 |